Odessa, TX

9:25 AM CDT on June 26, 2017 (GMT -0500)
Odessa-Schlemeyer

Weather History for KODO - June, 2013

Change the Weather History Date:

Saturday, June 29, 2013

  Actual Average (KMAF) Record (KMAF)
Temperature  
Mean Temperature 89 °F -  
Max Temperature 100 °F 92 °F 109 °F (1946)
Min Temperature 79 °F 68 °F 57 °F (1985)
Cooling Degree Days 24    
Growing Degree Days 39 (Base 50)    
Moisture  
Dew Point 54 °F    
Average Humidity 31    
Maximum Humidity 44    
Minimum Humidity 16    
Precipitation  
Precipitation 0.00 in - - ()
Sea Level Pressure  
Sea Level Pressure 29.89 in    
Wind  
Wind Speed 10 mph (East)    
Max Wind Speed 31 mph    
Max Gust Speed 39 mph    
Visibility 8 miles    
Events Rain , Thunderstorm    
Averages and records for this station are not official NWS values.
T = Trace of Precipitation, MM = Missing Value Source: NWS Daily Summary

Daily Weather History Graph

Daily Weather History Graph

Search for Another Location

Airport or City:

Trip Planner

Search our weather history database for the weather conditions in past years. The results will help you decide how hot, cold, wet, or windy it might be!

Date:

Astronomy

Jun. 29, 2013 Rise Set
Actual Time 6:46 AM CDT 8:59 PM CDT
Civil Twilight 6:18 AM CDT 9:27 PM CDT
Nautical Twilight 5:44 AM CDT 10:02 PM CDT
Astronomical Twilight 5:06 AM CDT 10:39 PM CDT
Moon 12:54 AM CDT (6/29) 1:33 PM CDT (6/29)
Length of Visible Light 15h 09m
Length of Day
14h 12m
Waning Gibbous, 55% of the Moon is Illuminated
Jun 29
Waning Gibbous
Jun 29
Last Quarter
Jul 8
New
Jul 15
First Quarter
Jul 22
Full

Hourly Weather History & Observations

Time (CDT) Temp. Heat Index Dew Point Humidity Pressure Visibility Wind Dir Wind Speed Gust Speed Precip Events Conditions
12:53 AM 84.9 °F - 51.1 °F 31% 29.86 in 10.0 mi ESE 5.8 mph - N/A   Clear
1:53 AM 82.9 °F - 51.1 °F 33% 29.85 in 10.0 mi ESE 4.6 mph - N/A   Clear
2:53 AM 82.0 °F - 52.0 °F 35% 29.85 in 10.0 mi Calm Calm - N/A   Clear
3:53 AM 80.1 °F - 52.0 °F 38% 29.85 in 10.0 mi SE 3.5 mph - N/A   Clear
4:53 AM 81.0 °F 80.4 °F 53.1 °F 38% 29.85 in 10.0 mi East 8.1 mph - N/A   Clear
5:53 AM 81.0 °F 80.5 °F 54.0 °F 39% 29.86 in 10.0 mi East 8.1 mph - N/A   Clear
6:53 AM 79.0 °F - 55.0 °F 44% 29.87 in 10.0 mi East 8.1 mph - N/A   Clear
7:53 AM 80.1 °F 80.2 °F 55.9 °F 43% 29.88 in 10.0 mi ESE 5.8 mph - N/A   Clear
8:53 AM 82.0 °F 81.7 °F 57.0 °F 42% 29.89 in 10.0 mi ESE 8.1 mph - N/A   Clear
9:53 AM 86.0 °F 85.0 °F 57.9 °F 38% 29.89 in 10.0 mi SSE 3.5 mph - N/A   Clear
10:53 AM 91.9 °F 90.3 °F 55.9 °F 30% 29.88 in 10.0 mi SE 4.6 mph - N/A   Clear
11:53 AM 95.0 °F - 52.0 °F 23% 29.88 in 10.0 mi West 4.6 mph - N/A   Scattered Clouds
12:50 PM 93.2 °F 91.9 °F 57.2 °F 30% 30.07 in 3.0 mi NE 28.8 mph 35.7 mph N/A   Haze
12:53 PM 93.0 °F 93.0 °F 61.0 °F 34% 29.90 in 2.5 mi NE 28.8 mph 35.7 mph N/A   Haze
1:03 PM 91.4 °F 92.1 °F 62.6 °F 38% 30.07 in 1.5 mi NE 27.6 mph - N/A   Haze
1:18 PM 91.4 °F 91.4 °F 60.8 °F 36% 30.05 in 1.2 mi NE 31.1 mph 39.1 mph 0.00 in Rain , Thunderstorm Light Rain
1:33 PM 91.4 °F 90.7 °F 59.0 °F 34% 30.05 in 1.8 mi ENE 29.9 mph 38.0 mph 0.00 in   Haze
1:43 PM 93.2 °F 92.6 °F 59.0 °F 32% 30.05 in 2.5 mi NE 25.3 mph 33.4 mph 0.00 in   Haze
1:53 PM 93.9 °F 93.2 °F 59.0 °F 31% 29.88 in 2.5 mi ENE 21.9 mph 31.1 mph 0.00 in   Haze
2:01 PM 93.2 °F 92.6 °F 59.0 °F 32% 30.04 in 3.0 mi ENE 19.6 mph 28.8 mph N/A   Haze
2:53 PM 93.9 °F 92.2 °F 55.9 °F 28% 29.86 in 10.0 mi East 12.7 mph - N/A   Scattered Clouds
3:53 PM 97.0 °F 94.6 °F 54.0 °F 23% 29.82 in 10.0 mi SSE 9.2 mph - N/A   Clear
4:53 PM 98.1 °F - 51.1 °F 20% 29.78 in 10.0 mi SSW 9.2 mph - N/A   Clear
5:53 PM 99.0 °F - 48.0 °F 18% 29.75 in 10.0 mi South 9.2 mph - N/A   Clear
6:53 PM 99.0 °F - 48.0 °F 18% 29.75 in 10.0 mi South 6.9 mph - N/A   Clear
7:53 PM 98.1 °F - 45.0 °F 16% 29.74 in 10.0 mi SSW 5.8 mph - N/A   Clear
8:53 PM 96.1 °F - 46.0 °F 18% 29.75 in 10.0 mi SW 3.5 mph - N/A   Clear
9:53 PM 93.9 °F - 45.0 °F 18% 29.76 in 10.0 mi Calm Calm - N/A   Clear
10:46 PM 87.8 °F 85.7 °F 53.6 °F 31% 29.97 in 9.0 mi NNE 18.4 mph 24.2 mph N/A Thunderstorm Partly Cloudy
10:53 PM 84.0 °F 83.0 °F 55.9 °F 38% 29.81 in 5.0 mi NNE 13.8 mph - N/A Thunderstorm Haze
11:01 PM 84.2 °F 83.0 °F 55.4 °F 37% 29.98 in 4.0 mi NE 12.7 mph - N/A   Haze
11:17 PM 84.2 °F 83.0 °F 55.4 °F 37% 29.98 in 10.0 mi East 6.9 mph - N/A Thunderstorm Mostly Cloudy
11:32 PM 86.0 °F 84.2 °F 53.6 °F 33% 29.99 in 10.0 mi North 10.4 mph - 0.00 in   Scattered Clouds
11:53 PM 88.0 °F - 52.0 °F 29% 29.82 in 10.0 mi North 11.5 mph 19.6 mph 0.00 in   Clear